FALCON 9 R/B (43588 NORAD) Tracking and Keplerian Element Data

This shows tracking and keplerian element data for the satellite.

Feedback or suggestion? Click here.




ElementValue
Catalog43588
NameFALCON 9 R/B
Epoch Orbit82
Epoch Day248.10689566
Epoch Year2018
RAAN213.1228
Inclination27.0184
Eccentricity0.690367
Argument of Perigee200.3363
Mean Anonmoly106.3713
Mean Motion2.82230008
Decay Rate0.00023833
L11 43588U 18064B 18248.10689566 .00023833 -90678-6 53617-3 0 9992
L22 43588 27.0184 213.1228 6903670 200.3363 106.3713 2.82230008 825

Live tracking and technical data element details for FALCON 9 R/B (NORAD 43588). FALCON 9 R/B can be tracked NOW for your location showing map with azimuth and elevation plus other details from your city location.

Track the satellite on the map from your city or location and see movement details for azimuth, elevation, latitude, longitude, range, height, and movement on the map or in text.







IsCatalogInMostPopularTable: catalog: 43588, numindb: 31
Update: records affected: 1



GetName: 43588 FALCON 9 R/B

Hit Count: updated at: Fri, 16 Nov 2018 03:00:15 GMT